Location: Ostrava
(49.8330°N, 18.2830°E)
Time: 13:45:24
(UTC+01:00)

Cosmos 2219 Rocket - Visible Passes

Search period start: 04 March 2015 00:00
Search period end: 14 March 2015 00:00
Orbit: 830 x 845 km, 71.0° (Epoch: 03 March)

Date Brightness Start Highest point End Pass type
(mag) Time Alt. Az. Time Alt. Az. Time Alt. Az.
04 Mar 4.6 18:07:20 10° WNW 18:10:34 15° NNW 18:13:40 10° N visible
04 Mar 4.7 21:41:54 10° N 21:43:18 12° NNE 21:43:18 12° NNE visible
04 Mar 5.0 23:24:38 10° NNW 23:25:01 12° NNW 23:25:01 12° NNW visible
05 Mar 4.7 21:25:43 10° N 21:27:23 12° NNE 21:27:23 12° NNE visible
05 Mar 4.9 23:08:23 10° NNW 23:09:06 13° NNW 23:09:06 13° NNW visible
06 Mar 4.6 21:09:33 10° N 21:11:19 11° NNE 21:11:28 11° NNE visible
06 Mar 4.8 22:52:06 10° NNW 22:53:11 15° N 22:53:11 15° N visible
07 Mar 4.6 20:53:24 10° N 20:54:55 11° NNE 20:55:33 11° NNE visible
07 Mar 4.6 22:35:51 10° NNW 22:37:17 17° N 22:37:17 17° N visible
08 Mar 4.6 20:37:18 10° N 20:38:32 11° NNE 20:39:39 10° NNE visible
08 Mar 4.5 22:19:35 10° NNW 22:21:22 18° N 22:21:22 18° N visible
09 Mar 4.5 20:21:13 10° N 20:22:08 10° NNE 20:23:11 10° NNE visible
09 Mar 4.3 22:03:20 10° NNW 22:05:28 20° N 22:05:28 20° N visible
09 Mar 5.0 23:47:02 10° NW 23:47:12 11° NW 23:47:12 11° NW visible
10 Mar 4.6 20:05:22 10° NNE 20:05:45 10° NNE 20:06:15 10° NNE visible
10 Mar 4.2 21:47:04 10° NNW 21:49:35 21° N 21:49:35 21° N visible
10 Mar 4.9 23:30:44 10° NNW 23:31:18 13° NW 23:31:18 13° NW visible
11 Mar 4.0 21:30:49 10° NNW 21:33:42 22° NNE 21:33:42 22° NNE visible
11 Mar 4.7 23:14:25 10° NNW 23:15:26 16° NNW 23:15:26 16° NNW visible
12 Mar 3.9 21:14:33 10° NNW 21:17:50 23° NNE 21:17:50 23° NNE visible
12 Mar 4.5 22:58:07 10° NNW 22:59:34 18° NNW 22:59:34 18° NNW visible
13 Mar 3.8 20:58:18 10° NNW 21:01:59 23° NNE 21:01:59 23° NNE visible
13 Mar 4.3 22:41:50 10° NNW 22:43:42 22° NNW 22:43:42 22° NNW visible
